カタログに戻る

COSMOS 1937

運用中ナビゲーションLEO
NORAD 19038·PAYLOAD·🇷🇺 Russia

打ち上げ Apr 5, 1988 から Plesetsk Cosmodrome

Loading…

次のパス (今後24時間)

TLE

最新Source: Space-Track

元期: Sep 14, 2026, 21:46 UTC

1 19038U 88029A   26257.90716517  .00000069  00000-0  32572-4 0  9994
2 19038  74.0452 299.9744 0023937   0.7647 177.4293 14.36167543 12610

AllMySatでCOSMOS 1937をリアルタイム追跡

Download on the App Store